Location: Arundel
(45.9667°N, 74.6189°W)
Time: 05:57:38
(UTC+00:00)

X-37B - Pass Details

Date: 12 December 2022
Orbit: 277 x 277 km, 45.0° (Epoch: 01 November)

Event Time Altitude Azimuth Distance (km) Brightness Sun altitude
Rises 21:59:38 0° 251° (WSW) 1,911 6.5 -7.8°
Reaches altitude 10° 22:01:34 10° 246° (WSW) 1,100 4.6 -8.2°
Maximum altitude 22:03:58 52° 168° (SSE) 353 0.5 -8.5°
Enters shadow 22:06:07 12° 91° (E) 1,001 2.1 -8.9°
